Logansport, IN

8:52 PM EDT on September 24, 2017 (GMT -0400)
Logansport Municipal

Weather History for KGGP - May, 2013

Change the Weather History Date:

Tuesday, May 14, 2013

  Actual Average Record
Temperature  
Mean Temperature 64 °F -  
Max Temperature 82 °F 69 °F 82 °F (2013)
Min Temperature 46 °F 46 °F 39 °F (2016)
Degree Days  
Heating Degree Days 1    
Growing Degree Days 14 (Base 50)    
Moisture  
Dew Point 47 °F    
Average Humidity 50    
Maximum Humidity 71    
Minimum Humidity 39    
Precipitation  
Precipitation 0.00 in - - ()
Sea Level Pressure  
Sea Level Pressure 29.89 in    
Wind  
Wind Speed 11 mph (SSW)    
Max Wind Speed 23 mph    
Max Gust Speed 30 mph    
Visibility 10 miles    
Events      
Averages and records for this station are not official NWS values.
T = Trace of Precipitation, MM = Missing Value Source: NWS Daily Summary

Daily Weather History Graph

Daily Weather History Graph

Search for Another Location

Airport or City:

Trip Planner

Search our weather history database for the weather conditions in past years. The results will help you decide how hot, cold, wet, or windy it might be!

Date:

Astronomy

May. 14, 2013 Rise Set
Actual Time 6:29 AM EDT 8:55 PM EDT
Civil Twilight 5:58 AM EDT 9:26 PM EDT
Nautical Twilight 5:19 AM EDT 10:04 PM EDT
Astronomical Twilight 4:37 AM EDT 10:47 PM EDT
Moon 10:08 AM EDT (5/14) 12:02 AM EDT (5/14)
Length of Visible Light 15h 28m
Length of Day
14h 25m
Waxing Crescent, 19% of the Moon is Illuminated
May 14
Waxing Crescent
May 18
First Quarter
May 25
Full
May 31
Last Quarter
Jun 8
New

Hourly Weather History & Observations

Time (EDT) Temp. Windchill Dew Point Humidity Pressure Visibility Wind Dir Wind Speed Gust Speed Precip Events Conditions
12:15 AM 46.4 °F 44.3 °F 35.6 °F 66% 30.09 in 10.0 mi East 4.6 mph - N/A   Scattered Clouds
12:35 AM 46.4 °F 43.5 °F 35.6 °F 66% 30.10 in 10.0 mi ESE 5.8 mph - N/A   Mostly Cloudy
12:55 AM 46.4 °F 43.5 °F 35.6 °F 66% 30.09 in 10.0 mi ESE 5.8 mph - N/A   Overcast
1:15 AM 48.2 °F - 37.4 °F 66% 30.09 in 10.0 mi ESE 3.5 mph - N/A   Overcast
1:35 AM 46.4 °F 45.2 °F 37.4 °F 71% 30.08 in 10.0 mi SE 3.5 mph - N/A   Mostly Cloudy
1:55 AM 48.2 °F - 37.4 °F 66% 30.07 in 10.0 mi SE 5.8 mph - N/A   Scattered Clouds
2:15 AM 50.0 °F - 37.4 °F 62% 30.06 in 10.0 mi SSE 5.8 mph - N/A   Scattered Clouds
2:35 AM 50.0 °F - 37.4 °F 62% 30.06 in 10.0 mi South 6.9 mph - N/A   Clear
2:55 AM 50.0 °F - 37.4 °F 62% 30.05 in 10.0 mi SSW 6.9 mph - N/A   Scattered Clouds
3:15 AM 50.0 °F - 37.4 °F 62% 30.04 in 10.0 mi SSW 6.9 mph - N/A   Scattered Clouds
3:35 AM 51.8 °F - 37.4 °F 58% 30.03 in 10.0 mi SSW 9.2 mph - N/A   Mostly Cloudy
3:55 AM 51.8 °F - 37.4 °F 58% 30.02 in 10.0 mi SSW 9.2 mph - N/A   Overcast
4:15 AM 51.8 °F - 37.4 °F 58% 30.02 in 10.0 mi SSW 9.2 mph - N/A   Mostly Cloudy
4:35 AM 51.8 °F - 37.4 °F 58% 30.01 in 10.0 mi SSW 10.4 mph - N/A   Overcast
4:55 AM 51.8 °F - 37.4 °F 58% 30.00 in 10.0 mi South 9.2 mph - N/A   Overcast
5:15 AM 51.8 °F - 37.4 °F 58% 30.00 in 10.0 mi South 9.2 mph - N/A   Overcast
5:35 AM 51.8 °F - 37.4 °F 58% 29.99 in 10.0 mi South 9.2 mph - N/A   Overcast
5:55 AM 51.8 °F - 37.4 °F 58% 29.99 in 10.0 mi South 9.2 mph - N/A   Overcast
6:15 AM 51.8 °F - 37.4 °F 58% 29.99 in 10.0 mi South 9.2 mph - N/A   Mostly Cloudy
6:35 AM 51.8 °F - 35.6 °F 54% 29.98 in 10.0 mi South 10.4 mph - N/A   Scattered Clouds
6:55 AM 51.8 °F - 35.6 °F 54% 29.98 in 10.0 mi South 9.2 mph - N/A   Clear
7:15 AM 51.8 °F - 35.6 °F 54% 29.98 in 10.0 mi South 10.4 mph - N/A   Clear
7:35 AM 53.6 °F - 35.6 °F 51% 29.98 in 10.0 mi South 11.5 mph - N/A   Clear
7:55 AM 53.6 °F - 35.6 °F 51% 29.97 in 10.0 mi South 12.7 mph - N/A   Clear
8:15 AM 55.4 °F - 35.6 °F 47% 29.96 in 10.0 mi South 13.8 mph - N/A   Scattered Clouds
8:35 AM 57.2 °F - 35.6 °F 44% 29.96 in 10.0 mi South 15.0 mph 21.9 mph N/A   Scattered Clouds
8:55 AM 59.0 °F - 35.6 °F 42% 29.96 in 10.0 mi South 15.0 mph 23.0 mph N/A   Clear
9:15 AM 60.8 °F - 37.4 °F 42% 29.95 in 10.0 mi South 17.3 mph 25.3 mph N/A   Clear
9:35 AM 62.6 °F - 37.4 °F 39% 29.94 in 10.0 mi South 21.9 mph 25.3 mph N/A   Scattered Clouds
9:55 AM 62.6 °F - 41.0 °F 45% 29.92 in 10.0 mi SSW 21.9 mph 26.5 mph N/A   Overcast
10:15 AM 64.4 °F - 42.8 °F 45% 29.90 in 10.0 mi SSW 21.9 mph 29.9 mph N/A   Mostly Cloudy
10:35 AM 64.4 °F - 42.8 °F 45% 29.89 in 10.0 mi SSW 21.9 mph - N/A   Mostly Cloudy
10:55 AM 66.2 °F - 42.8 °F 43% 29.88 in 10.0 mi South 23.0 mph 28.8 mph N/A   Mostly Cloudy
11:15 AM 68.0 °F - 44.6 °F 43% 29.87 in 10.0 mi SSW 20.7 mph 26.5 mph N/A   Mostly Cloudy
11:35 AM 68.0 °F - 44.6 °F 43% 29.87 in 10.0 mi SSW 23.0 mph 26.5 mph N/A   Mostly Cloudy
11:55 AM 71.6 °F - 46.4 °F 41% 29.86 in 10.0 mi SSW 23.0 mph 28.8 mph N/A   Scattered Clouds
12:15 PM 71.6 °F - 48.2 °F 43% 29.84 in 10.0 mi SSW 20.7 mph 26.5 mph N/A   Clear
12:35 PM 73.4 °F - 48.2 °F 41% 29.84 in 10.0 mi SSW 19.6 mph 26.5 mph N/A   Clear
12:55 PM 73.4 °F - 50.0 °F 44% 29.83 in 10.0 mi SSW 21.9 mph 29.9 mph N/A   Clear
1:15 PM 77.0 °F - 50.0 °F 39% 29.83 in 10.0 mi SW 20.7 mph 26.5 mph N/A   Clear
1:35 PM 77.0 °F - 51.8 °F 41% 29.83 in 10.0 mi WSW 19.6 mph 26.5 mph N/A   Clear
1:55 PM 77.0 °F - 51.8 °F 41% 29.83 in 10.0 mi WSW 15.0 mph 25.3 mph N/A   Clear
2:15 PM 78.8 °F - 51.8 °F 39% 29.82 in 10.0 mi WSW 17.3 mph 26.5 mph N/A   Clear
2:35 PM 78.8 °F - 53.6 °F 42% 29.82 in 10.0 mi WSW 12.7 mph - N/A   Clear
2:55 PM 78.8 °F - 53.6 °F 42% 29.81 in 10.0 mi SW 18.4 mph 26.5 mph N/A   Clear
3:15 PM 78.8 °F - 53.6 °F 42% 29.81 in 10.0 mi SW 18.4 mph 24.2 mph N/A   Clear
3:35 PM 80.6 °F - 53.6 °F 39% 29.80 in 10.0 mi SW 18.4 mph 24.2 mph N/A   Clear
3:55 PM 80.6 °F - 53.6 °F 39% 29.79 in 10.0 mi WSW 21.9 mph 27.6 mph N/A   Clear
4:15 PM 80.6 °F - 55.4 °F 42% 29.79 in 10.0 mi WSW 19.6 mph 26.5 mph N/A   Clear
4:35 PM 80.6 °F - 55.4 °F 42% 29.79 in 10.0 mi WSW 17.3 mph 28.8 mph N/A   Clear
4:55 PM 82.4 °F - 55.4 °F 39% 29.79 in 10.0 mi WSW 19.6 mph 23.0 mph N/A   Clear
5:15 PM 82.4 °F - 55.4 °F 39% 29.79 in 10.0 mi SW 15.0 mph 19.6 mph N/A   Clear
5:35 PM 82.4 °F - 55.4 °F 39% 29.79 in 10.0 mi WSW 18.4 mph 27.6 mph N/A   Clear
5:55 PM 82.4 °F - 55.4 °F 39% 29.79 in 10.0 mi WSW 20.7 mph 24.2 mph N/A   Clear
6:15 PM 82.4 °F - 55.4 °F 39% 29.79 in 10.0 mi WSW 15.0 mph - N/A   Clear
6:35 PM 82.4 °F - 55.4 °F 39% 29.79 in 10.0 mi SW 13.8 mph 20.7 mph N/A   Clear
6:55 PM 82.4 °F - 57.2 °F 42% 29.79 in 10.0 mi SW 13.8 mph 18.4 mph N/A   Clear
7:15 PM 80.6 °F - 55.4 °F 42% 29.79 in 10.0 mi SW 13.8 mph 18.4 mph N/A   Clear
7:35 PM 80.6 °F - 55.4 °F 42% 29.78 in 10.0 mi SW 13.8 mph 19.6 mph N/A   Clear
7:55 PM 80.6 °F - 57.2 °F 45% 29.78 in 10.0 mi SW 15.0 mph 19.6 mph N/A   Clear
8:15 PM 78.8 °F - 55.4 °F 44% 29.78 in 10.0 mi SW 13.8 mph - N/A   Clear
8:35 PM 78.8 °F - 55.4 °F 44% 29.78 in 10.0 mi SSW 12.7 mph - N/A   Clear
8:55 PM 77.0 °F - 55.4 °F 47% 29.78 in 10.0 mi SSW 12.7 mph - N/A   Clear
9:15 PM 73.4 °F - 57.2 °F 57% 29.78 in 10.0 mi SSW 11.5 mph - N/A   Clear
9:35 PM 71.6 °F - 59.0 °F 64% 29.77 in 10.0 mi SSW 12.7 mph - N/A   Clear
9:55 PM 73.4 °F - 59.0 °F 61% 29.78 in 10.0 mi SSW 15.0 mph - N/A   Clear
10:15 PM 71.6 °F - 59.0 °F 64% 29.78 in 10.0 mi SSW 13.8 mph - N/A   Clear
10:35 PM 71.6 °F - 59.0 °F 64% 29.78 in 10.0 mi SSW 13.8 mph - N/A   Clear
10:55 PM 71.6 °F - 59.0 °F 64% 29.78 in 10.0 mi SSW 16.1 mph - N/A   Clear
11:15 PM 73.4 °F - 59.0 °F 61% 29.78 in 10.0 mi SSW 18.4 mph 21.9 mph N/A   Clear
11:35 PM 73.4 °F - 59.0 °F 61% 29.78 in 10.0 mi SSW 17.3 mph 26.5 mph N/A   Clear
11:55 PM 73.4 °F - 57.2 °F 57% 29.77 in 10.0 mi SSW 17.3 mph 25.3 mph N/A   Clear